(272927) = 2006 BG211 = 1999 XV250

Discovered at Kitt Peak on 2006-01-31 by Spacewatch.

Orbit

Orbit type: Main Belt

Note: WebGL enabled browser required.

epoch2023-09-13.0
epoch JD2460200.5
perihelion date2022-07-31.91072
perihelion JD2459792.41072
argument of perihelion (°)71.62657
ascending node (°)88.14835
inclination (°)2.34976
eccentricity0.1356321
perihelion distance (AU)2.6872765
Tisserand w.r.t. Jupiter3.2
ΔV w.r.t. Earth (km/sec)10.3
semimajor axis (AU)3.1089498
mean anomaly (°)73.37337
mean daily motion (°/day)0.17979740
aphelion distance (AU)3.531
period (years)5.48
P-vector [x]-0.93754425
P-vector [y]0.30168072
P-vector [z]0.17320368
Q-vector [x]-0.34544400
Q-vector [y]-0.86606029
Q-vector [z]-0.36139731
absolute magnitude16.59
phase slope0.15
uncertainty0
referenceMPEC 2023-P20
observations used273
oppositions16
arc length (days)10318
first opposition used1995
last opposition used2023
residual rms (arc-secs)0.77
perturbers coarse indicatorM-v
perturbers precise indicator003Ek
first observation date used1995-03-23.0
last observation date used2023-06-22.0
computer nameMPCLINUX
JD of orbit computation2456966.876461
perihelion JD uncertainty (days)1.7991E-04
argument of perihelion uncertainty (°)1.7123E-04
ascending node uncertainty (°)1.6854E-04
inclination uncertainty (°)5.6062E-06
eccentricity uncertainty 6.1388E-08
perihelion distance uncertainty (AU)1.9000E-07
Minimum Orbit Intersection Distances (in AU)
for orbit epoch: 2460200.5, reference: E2023-P20
Mercury2.31112
Venus1.96844
Earth1.69595
Mars1.02172
Jupiter1.45081
Saturn5.9267
Uranus15.7572
Neptune26.3897

Observations

278 total observations over interval: 1995 03 23.15354 – 2023 06 22.298508
These data are available for download (format description).

Date (UT) J2000 RA J2000 Dec Magn Location Ref
1995 03 23.15354 11 04 46.37 +09 47 38.4 20.3 V 691 – Steward Observatory, Kitt Peak-Spacewatch MPS 178576
1995 03 23.17494 11 04 45.48 +09 47 43.9   691 – Steward Observatory, Kitt Peak-Spacewatch MPS 178576
1995 03 23.20264 11 04 44.33 +09 47 49.7   691 – Steward Observatory, Kitt Peak-Spacewatch MPS 178576
1999 12 05.46338 07 51 44.42 +21 45 46.0 21.9 V 691 – Steward Observatory, Kitt Peak-Spacewatch MPS 16717
1999 12 05.48571 07 51 44.02 +21 45 47.9 21.6 V 691 – Steward Observatory, Kitt Peak-Spacewatch MPS 16717
1999 12 05.50801 07 51 43.64 +21 45 50.3 21.3 V 691 – Steward Observatory, Kitt Peak-Spacewatch MPS 16717
1999 12 12.44572 07 49 11.14 +21 58 58.5 21.8 V 691 – Steward Observatory, Kitt Peak-Spacewatch MPS 16717
1999 12 12.46883 07 49 10.46 +21 59 01.6 21.1 V 691 – Steward Observatory, Kitt Peak-Spacewatch MPS 16717
1999 12 12.49138 07 49 09.81 +21 59 04.7 21.6 V 691 – Steward Observatory, Kitt Peak-Spacewatch MPS 16717
2001 04 27.05405 14 20 05.95 -10 57 43.0 20.8 R I03 – European Southern Obs., La Silla--ASTROVIRTEL MPS 167152
2001 04 27.15078 14 20 01.19 -10 57 22.8 20.7 R I03 – European Southern Obs., La Silla--ASTROVIRTEL MPS 167152
2001 04 30.35783 14 17 29.13 -10 46 25.7 20.7 V 691 – Steward Observatory, Kitt Peak-Spacewatch MPS 167152
2001 04 30.37891 14 17 28.10 -10 46 21.5 21.0 V 691 – Steward Observatory, Kitt Peak-Spacewatch MPS 167152
2001 04 30.40008 14 17 27.11 -10 46 16.8 21.4 V 691 – Steward Observatory, Kitt Peak-Spacewatch MPS 167152
2004 11 10.40859 04 29 53.89 +20 20 39.4 21.4 V 691 – Steward Observatory, Kitt Peak-Spacewatch MPS 167152
2004 11 10.43478 04 29 52.70 +20 20 37.7 21.2 V 691 – Steward Observatory, Kitt Peak-Spacewatch MPS 167152
2004 11 10.46108 04 29 51.50 +20 20 35.4 20.7 V 691 – Steward Observatory, Kitt Peak-Spacewatch MPS 167152
2006 01 31.44743 11 23 06.48 +07 24 48.9 20.7 V 691 – Steward Observatory, Kitt Peak-Spacewatch MPS 162996
2006 01 31.46483 11 23 06.12 +07 24 52.2 20.7 V 691 – Steward Observatory, Kitt Peak-Spacewatch MPS 162996
2006 01 31.48222 11 23 05.79 +07 24 55.7 20.8 V 691 – Steward Observatory, Kitt Peak-Spacewatch MPS 162996
2006 02 01.43388 11 22 47.49 +07 28 03.5 20.9 V G96 – Mt. Lemmon Survey MPS 162996
2006 02 01.44053 11 22 47.38 +07 28 04.9 20.4 V G96 – Mt. Lemmon Survey MPS 162996
2006 02 01.44716 11 22 47.24 +07 28 05.7 20.7 V G96 – Mt. Lemmon Survey MPS 162996
2006 02 01.45392 11 22 47.10 +07 28 07.1 21.3 V G96 – Mt. Lemmon Survey MPS 162996
2006 02 04.45926 11 21 40.93 +07 38 47.2 20.5 V 691 – Steward Observatory, Kitt Peak-Spacewatch MPS 162996
2006 02 04.47753 11 21 40.46 +07 38 51.4 20.6 V 691 – Steward Observatory, Kitt Peak-Spacewatch MPS 162996
2006 02 04.49493 11 21 40.00 +07 38 55.1 20.6 V 691 – Steward Observatory, Kitt Peak-Spacewatch MPS 162996
2006 03 04.16886 11 04 06.27 +09 51 03.7   691 – Steward Observatory, Kitt Peak-Spacewatch MPS 166193
2006 03 04.18616 11 04 05.42 +09 51 09.3   691 – Steward Observatory, Kitt Peak-Spacewatch MPS 166193
2006 03 04.20347 11 04 04.63 +09 51 14.2   691 – Steward Observatory, Kitt Peak-Spacewatch MPS 166193
2006 03 04.27818 11 04 01.02 +09 51 36.6 19.3 V G96 – Mt. Lemmon Survey MPS 166193
2006 03 04.28784 11 04 00.55 +09 51 39.7 19.2 V G96 – Mt. Lemmon Survey MPS 166193
2006 03 04.29769 11 04 00.08 +09 51 42.7 19.5 V G96 – Mt. Lemmon Survey MPS 166193
2006 03 04.30727 11 03 59.65 +09 51 45.5 19.1 V G96 – Mt. Lemmon Survey MPS 166193
2006 03 08.15786 11 01 01.46 +10 10 54.2 20.4 V 691 – Steward Observatory, Kitt Peak-Spacewatch MPS 166193
2006 03 08.17524 11 01 00.69 +10 10 59.3 20.3 V 691 – Steward Observatory, Kitt Peak-Spacewatch MPS 166193
2006 03 08.19259 11 00 59.78 +10 11 03.6 20.4 V 691 – Steward Observatory, Kitt Peak-Spacewatch MPS 166193
2009 09 19.40292 02 13 40.12 +10 26 24.9   691 – Steward Observatory, Kitt Peak-Spacewatch MPS 295878
2009 09 19.42058 02 13 39.65 +10 26 22.2   691 – Steward Observatory, Kitt Peak-Spacewatch MPS 295878
2009 09 19.43827 02 13 39.21 +10 26 19.3   691 – Steward Observatory, Kitt Peak-Spacewatch MPS 295878
2010 11 11.46722 07 51 30.52 +21 26 16.8 22.1 V G96 – Mt. Lemmon Survey MPS 355388
2010 11 11.47302 07 51 30.63 +21 26 16.9 22.4 V G96 – Mt. Lemmon Survey MPS 355388
2010 11 11.47877 07 51 30.70 +21 26 16.0 22.7 V G96 – Mt. Lemmon Survey MPS 355388
2010 11 11.48450 07 51 30.85 +21 26 16.1 22.1 V G96 – Mt. Lemmon Survey MPS 355388
2011 01 02.32411 07 35 54.56 +22 51 34.3 20.4 V G96 – Mt. Lemmon Survey MPS 363361
2011 01 02.33449 07 35 54.02 +22 51 36.1 19.9 V G96 – Mt. Lemmon Survey MPS 363361
2011 01 02.34487 07 35 53.48 +22 51 37.8 20.2 V G96 – Mt. Lemmon Survey MPS 363361
2011 01 02.35529 07 35 52.90 +22 51 39.7 20.1 V G96 – Mt. Lemmon Survey MPS 363361
2011 01 11.21934 07 28 00.08 +23 16 10.7 20.3 V 703 – Catalina Sky Survey MPS 365588
2011 01 11.22567 07 27 59.72 +23 16 11.1 20.8 V 703 – Catalina Sky Survey MPS 365588
2011 01 11.23198 07 27 59.32 +23 16 12.0 20.6 V 703 – Catalina Sky Survey MPS 365588
2011 01 11.23829 07 27 58.96 +23 16 13.8 20.6 V 703 – Catalina Sky Survey MPS 365588
2011 01 30.29528 07 11 40.804 +23 59 00.49 20.8 w F51 – Pan-STARRS 1, Haleakala MPS 378642
2011 01 30.31055 07 11 40.097 +23 59 02.07 20.7 w F51 – Pan-STARRS 1, Haleakala MPS 378642
2011 01 30.32486 07 11 39.436 +23 59 03.61 20.6 w F51 – Pan-STARRS 1, Haleakala MPS 378642
2012 04 19.32354 14 35 07.44 -12 12 45.9 19.9 V G96 – Mt. Lemmon Survey MPS 421774
2012 04 19.33226 14 35 07.00 -12 12 44.2 20.1 V G96 – Mt. Lemmon Survey MPS 421774
2012 04 19.34097 14 35 06.61 -12 12 42.6 20.1 V G96 – Mt. Lemmon Survey MPS 421774
2012 04 19.34968 14 35 06.18 -12 12 40.7 20.0 V G96 – Mt. Lemmon Survey MPS 421774
2012 05 21.35280 14 11 30.209 -10 37 27.91 20.9 w F51 – Pan-STARRS 1, Haleakala MPS 425916
2012 05 21.36730 14 11 29.688 -10 37 26.16 20.7 w F51 – Pan-STARRS 1, Haleakala MPS 425916
2012 05 21.38182 14 11 29.168 -10 37 24.54 20.7 w F51 – Pan-STARRS 1, Haleakala MPS 425916
2012 05 21.39635 14 11 28.645 -10 37 22.81 20.7 w F51 – Pan-STARRS 1, Haleakala MPS 425916
2013 07 04.44003 20 14 17.938 -21 25 07.75 21.5 w F51 – Pan-STARRS 1, Haleakala MPS 471739
2013 07 04.45259 20 14 17.382 -21 25 09.99 21.2 w F51 – Pan-STARRS 1, Haleakala MPS 471739
2013 07 04.47775 20 14 16.258 -21 25 14.40 21.2 w F51 – Pan-STARRS 1, Haleakala MPS 471739
2014 08 28.33072 00 16 03.54 -01 43 46.2 21.5 V 691 – Steward Observatory, Kitt Peak-Spacewatch MPS 529448
2014 08 28.35104 00 16 02.88 -01 43 50.9 21.9 V 691 – Steward Observatory, Kitt Peak-Spacewatch MPS 529448
2014 08 28.37135 00 16 02.20 -01 43 55.9 21.6 V 691 – Steward Observatory, Kitt Peak-Spacewatch MPS 529448
2014 08 30.50678 00 14 53.453 -01 52 32.63 21.7 w F51 – Pan-STARRS 1, Haleakala MPS 531213
2014 08 30.51782 00 14 53.062 -01 52 35.10 21.6 w F51 – Pan-STARRS 1, Haleakala MPS 531213
2014 09 03.40346 00 12 38.75 -02 09 02.3 21.9 V G96 – Mt. Lemmon Survey MPS 531213
2014 09 03.41175 00 12 38.39 -02 09 04.5 21.1 V G96 – Mt. Lemmon Survey MPS 531213
2014 09 03.42006 00 12 38.10 -02 09 06.6 21.9 V G96 – Mt. Lemmon Survey MPS 531213
2014 09 03.42835 00 12 37.73 -02 09 08.1 22.2 V G96 – Mt. Lemmon Survey MPS 531213
2014 09 30.36044 23 54 03.16 -04 12 56.4 20.6 V G96 – Mt. Lemmon Survey MPS 538561
2014 09 30.36638 23 54 02.93 -04 12 58.6 21.1 V G96 – Mt. Lemmon Survey MPS 538561
2014 09 30.37231 23 54 02.64 -04 12 59.0 21.2 V G96 – Mt. Lemmon Survey MPS 538561
2014 10 17.21184 23 43 21.71 -05 14 42.9 21.5 V G96 – Mt. Lemmon Survey MPS 540238
2014 10 17.21800 23 43 21.51 -05 14 43.3 21.2 V G96 – Mt. Lemmon Survey MPS 540238
2014 10 17.22415 23 43 21.27 -05 14 45.2 21.7 V G96 – Mt. Lemmon Survey MPS 540238
2014 10 17.23031 23 43 21.17 -05 14 45.4 21.3 V G96 – Mt. Lemmon Survey MPS 540238
2015 12 03.17341 04 14 51.05 +19 58 31.7 20.2 R V30 – Heaven on Earth Observatory, Mayhill MPS 656686
2015 12 03.21132 04 14 48.90 +19 58 29.3 20.4 R V30 – Heaven on Earth Observatory, Mayhill MPS 656686
2015 12 03.23052 04 14 47.91 +19 58 27.1 20.7 R V30 – Heaven on Earth Observatory, Mayhill MPS 656686
2015 12 04.21655 04 13 55.74 +19 56 54.0 21.0 V G96 – Mt. Lemmon Survey MPS 656686
2015 12 04.22406 04 13 55.39 +19 56 53.8 20.3 V G96 – Mt. Lemmon Survey MPS 656686
